Concord, CA

5:19 AM PDT on May 20, 2018 (GMT -0700)
Buchanan

Weather History for KCCR - October, 2013

Change the Weather History Date:

Thursday, October 10, 2013

  Actual Average Record
Temperature  
Mean Temperature 62 °F 66 °F  
Max Temperature 74 °F 79 °F 89 °F (1999)
Min Temperature 49 °F 53 °F 47 °F (2001)
Degree Days  
Heating Degree Days 3    
Month to date heating degree days 14  
Since 1 July heating degree days 32  
Cooling Degree Days 0    
Month to date cooling degree days 7  
Year to date cooling degree days 826  
Growing Degree Days 12 (Base 50)    
Moisture  
Dew Point 43 °F    
Average Humidity 53    
Maximum Humidity 77    
Minimum Humidity 29    
Precipitation  
Precipitation 0.00 in - 0.42 in (2007)
Month to date precipitation T  
Year to date precipitation 2.72  
Since 1 July precipitation 0.66  
Sea Level Pressure  
Sea Level Pressure 29.85 in    
Wind  
Wind Speed 5 mph (WSW)    
Max Wind Speed 13 mph    
Max Gust Speed 20 mph    
Visibility 10 miles    
Events      
T = Trace of Precipitation, MM = Missing Value Source: NWS Daily Summary

Daily Weather History Graph

Daily Weather History Graph

Search for Another Location

Airport or City:

Astronomy

Oct. 10, 2013 Rise Set
Actual Time 7:12 AM PDT 6:37 PM PDT
Civil Twilight 6:46 AM PDT 7:03 PM PDT
Nautical Twilight 6:15 AM PDT 7:34 PM PDT
Astronomical Twilight 5:45 AM PDT 8:04 PM PDT
Moon 1:05 PM PDT (10/10) 11:24 PM PDT (10/10)
Length of Visible Light 12h 17m
Length of Day
11h 24m
Waxing Crescent, 37% of the Moon is Illuminated
Oct 10
Waxing Crescent
Oct 11
First Quarter
Oct 18
Full
Oct 26
Last Quarter
Nov 3
New

Hourly Weather History & Observations

Time (PDT) Temp. Dew Point Humidity Pressure Visibility Wind Dir Wind Speed Gust Speed Precip Events Conditions
12:53 AM 52.0 °F 41.0 °F 66% 29.72 in 10.0 mi SE 3.5 mph - N/A   Clear
1:53 AM 52.0 °F 39.9 °F 63% 29.74 in 10.0 mi SSW 3.5 mph - N/A   Clear
2:53 AM 51.1 °F 41.0 °F 68% 29.75 in 10.0 mi SSW 4.6 mph - N/A   Clear
3:53 AM 51.1 °F 41.0 °F 68% 29.75 in 10.0 mi South 3.5 mph - N/A   Clear
4:53 AM 51.1 °F 41.0 °F 68% 29.77 in 10.0 mi ESE 3.5 mph - N/A   Clear
5:53 AM 52.0 °F 39.9 °F 63% 29.79 in 10.0 mi SSW 3.5 mph - N/A   Clear
6:53 AM 51.1 °F 41.0 °F 68% 29.80 in 10.0 mi South 4.6 mph - N/A   Clear
7:53 AM 52.0 °F 41.0 °F 66% 29.81 in 10.0 mi SSE 5.8 mph - N/A   Clear
8:53 AM 57.9 °F 42.1 °F 56% 29.84 in 10.0 mi South 3.5 mph - N/A   Clear
9:53 AM 62.1 °F 45.0 °F 53% 29.86 in 10.0 mi Calm Calm - N/A   Clear
10:53 AM 66.0 °F 44.1 °F 45% 29.87 in 10.0 mi North 4.6 mph - N/A   Clear
11:53 AM 68.0 °F 42.1 °F 39% 29.88 in 10.0 mi Calm Calm - N/A   Clear
12:53 PM 72.0 °F 39.9 °F 31% 29.87 in 10.0 mi North 4.6 mph - N/A   Clear
1:53 PM 73.0 °F 39.9 °F 30% 29.86 in 10.0 mi NNW 6.9 mph - N/A   Clear
2:53 PM 72.0 °F 44.1 °F 37% 29.87 in 10.0 mi NW 12.7 mph - N/A   Clear
3:53 PM 72.0 °F 44.1 °F 37% 29.87 in 10.0 mi North 6.9 mph - N/A   Clear
4:53 PM 71.1 °F 42.1 °F 35% 29.86 in 10.0 mi NNW 5.8 mph - N/A   Clear
5:53 PM 69.1 °F 44.1 °F 40% 29.87 in 10.0 mi West 8.1 mph - N/A   Clear
6:53 PM 63.0 °F 44.1 °F 50% 29.88 in 10.0 mi WNW 5.8 mph - N/A   Clear
7:53 PM 57.0 °F 46.9 °F 69% 29.91 in 10.0 mi NW 10.4 mph - N/A   Clear
8:53 PM 57.0 °F 43.0 °F 59% 29.94 in 10.0 mi WSW 3.5 mph - N/A   Clear
9:53 PM 57.0 °F 46.0 °F 67% 29.95 in 10.0 mi SW 6.9 mph - N/A   Clear
10:53 PM 53.1 °F 45.0 °F 74% 29.96 in 10.0 mi South 3.5 mph - N/A   Clear
11:53 PM 52.0 °F 45.0 °F 77% 29.97 in 10.0 mi Calm Calm - N/A   Clear